Temp
90 87 82 82 84 83 81 78 75 79 83 79 80 80 84 85 83 83 83 82 83 84 89 89 88 87 86 85 83 82 82 82 82 83 83 83 83 84 84 85 83 81 82 81
86 79 83 85 83 81 79 76 76 80 81 80 80 78 79 82 81 84 83 82 83 85 86 86 87 86 85 83 82 82 81 81 81 82 81 79 79 81 82 83 81 80 78 77
81 82 82 81 80 78 78 75 75 74 79 83 77 77 74 76 79 81 82 84 85 85 84 84 85 85 85 83 82 82 81 80 79 77 79 80 80 80 81 82 80 79 76 76
82 84 80 80 77 79 73 79 77 75 73 69 76 67 72 74 74 76 78 81 83 84 84 85 85 84 84 84 85 83 79 77 79 75 75 72 73 73 75 75 77 75 75 73
77 80 78 77 77 79 74 79 76 74 73 70 71 69 70 74 73 76 78 80 82 85 85 85 86 84 84 84 82 80 77 76 75 73 71 72 71 73 74 74 70 70 71 73
81 85 82 81 80 79 80 77 77 74 73 65 67 66 70 74 72 76 79 80 82 84 86 85 82 82 83 84 82 80 76 75 74 73 72 69 67 67 68 68 67 70 72 72
78 79 82 82 77 80 80 73 66 63 65 62 69 66 69 74 76 77 78 80 82 85 84 80 81 82 80 80 79 79 77 73 74 72 71 69 67 66 64 66 67 66 68 69
71 67 78 80 77 74 73 71 64 51 57 63 69 63 69 77 78 79 80 82 83 80 82 80 81 79 80 79 78 76 75 73 73 71 69 68 67 68 67 67 66 66 66 67
71 69 79 78 80 78 72 69 72 63 65 61 71 69 75 76 76 76 77 76 76 77 77 79 80 78 78 76 75 74 73 72 72 70 69 67 67 65 64 64 64 66 65 66
75 66 75 75 79 77 73 75 64 67 51 52 66 63 70 70 73 76 74 74 76 76 77 78 78 76 76 76 75 76 75 72 71 70 69 66 63 63 64 64 63 63 62 61
76 70 71 74 72 71 73 70 68 67 64 55 55 65 74 72 74 74 77 77 76 76 78 78 79 78 76 77 77 74 73 71 70 69 66 62 61 60 61 60 61 61 60 59
73 72 66 69 74 75 73 70 68 60 57 64 59 61 76 74 75 73 74 75 77 77 78 78 78 77 75 75 74 72 70 69 69 67 65 63 61 59 58 60 61 59 57 54
74 67 60 65 69 72 69 70 69 66 64 58 55 62 75 75 73 73 73 75 75 75 76 77 77 75 75 73 71 70 69 68 66 64 65 63 60 57 57 57 58 58 53 51
70 69 65 60 64 69 65 68 69 66 57 61 64 65 72 74 74 74 73 75 76 76 76 76 74 74 73 71 70 67 67 67 65 62 62 59 57 57 57 57 57 53 52 51
72 65 67 69 69 68 68 67 68 64 66 59 64 64 70 73 73 74 75 74 74 75 74 73 72 71 71 69 68 67 66 65 64 61 57 55 56 56 58 56 53 51 51 51
70 66 67 64 68 67 64 68 68 67 67 66 66 65 73 74 75 73 73 73 73 73 73 72 71 70 68 67 66 65 64 63 61 57 56 55 56 56 56 52 51 50 50 51
69 68 63 59 64 65 60 68 68 68 69 67 62 70 74 72 72 72 73 73 73 72 71 70 69 69 67 66 65 64 63 63 61 58 57 56 55 55 52 51 50 49 49 50
67 66 67 61 62 50 66 73 70 67 69 71 70 72 73 73 74 75 77 74 72 71 70 70 70 67 66 66 65 64 64 62 59 55 54 56 56 54 51 49 49 49 50 50
71 68 63 57 59 64 68 70 67 64 64 73 71 73 74 74 71 73 75 74 72 71 70 70 69 67 65 64 64 62 62 59 56 53 53 54 55 52 50 48 48 49 49 50
67 67 65 62 52 50 66 71 74 71 57 75 73 72 72 71 64 71 72 73 71 69 69 68 67 67 65 64 63 60 57 54 55 54 53 55 55 53 49 49 49 49 50 50
61 63 60 60 56 62 72 72 73 56 58 74 75 74 72 68 73 70 72 71 70 69 68 67 67 65 64 63 61 56 53 53 56 56 55 54 55 51 50 49 49 49 50 50
62 59 59 61 56 52 75 69 57 71 73 74 74 75 73 74 74 71 71 70 69 68 68 67 65 64 64 63 59 54 51 55 56 56 55 54 53 50 50 49 49 50 50 49
60 68 64 63 64 73 73 73 75 74 73 75 74 76 76 74 74 73 71 70 69 67 67 67 65 63 63 63 56 51 52 54 55 56 54 54 53 50 49 49 49 49 49 47
71 72 66 65 71 73 74 76 76 76 74 76 77 76 76 73 74 72 71 69 68 69 66 66 64 62 60 61 53 51 53 55 55 56 54 54 51 48 49 50 50 50 46 46
72 70 67 67 71 75 75 77 76 77 78 76 77 76 75 74 73 73 71 68 68 67 66 64 62 60 59 55 53 53 55 54 56 56 54 54 50 48 48 49 50 47 44 41
72 67 64 64 70 68 73 75 77 74 75 77 77 76 75 74 73 72 70 69 67 67 66 63 62 60 56 53 53 53 55 55 56 54 55 53 49 48 49 49 49 40 39 39
MSLP
1008.57 1007.69 1007.61 1008.60 1008.75 1008.87 1009.15 1009.20 1009.27 1009.79 1010.36 1010.45 1009.69 1009.92 1010.08 1010.89 1012.01 1012.22 1012.98 1013.66 1014.14 1014.61 1015.12 1015.96 1016.71 1017.33 1017.85 1018.30 1018.69 1018.90 1018.97 1019.06 1019.03 1018.69 1018.43 1018.05 1017.74 1017.66 1017.71 1017.60 1017.92 1018.15 1017.79 1017.57
1008.60 1008.44 1009.79 1009.85 1009.88 1009.71 1009.64 1009.45 1009.31 1009.97 1010.57 1010.68 1009.77 1009.97 1010.97 1011.17 1011.95 1012.18 1012.94 1013.62 1014.05 1014.55 1015.18 1015.99 1016.51 1017.17 1017.71 1018.16 1018.60 1018.84 1018.98 1019.06 1019.10 1018.89 1018.74 1018.85 1018.59 1018.13 1017.85 1017.77 1017.78 1017.84 1018.03 1017.95
1008.29 1009.73 1010.60 1010.39 1010.15 1010.01 1009.86 1010.17 1010.19 1010.39 1010.45 1010.08 1010.33 1009.35 1010.97 1011.96 1012.50 1012.86 1013.39 1013.68 1013.97 1014.37 1015.01 1015.70 1016.26 1016.83 1017.39 1017.86 1018.22 1018.46 1018.84 1019.10 1019.21 1019.33 1018.99 1018.37 1017.98 1017.55 1017.18 1016.88 1017.18 1017.35 1018.13 1017.97
1009.44 1010.51 1010.59 1010.37 1010.44 1010.70 1010.09 1011.09 1011.12 1010.89 1010.67 1009.86 1010.82 1009.54 1010.43 1011.63 1012.42 1013.13 1013.51 1013.82 1013.89 1014.38 1015.08 1015.50 1016.10 1016.73 1017.23 1017.57 1017.79 1018.40 1019.05 1019.26 1019.08 1019.37 1019.05 1019.02 1018.60 1018.11 1018.08 1018.21 1017.76 1018.08 1017.89 1017.74
1009.91 1010.34 1010.54 1010.44 1011.11 1011.48 1011.32 1011.73 1011.54 1011.39 1010.88 1010.76 1010.47 1010.28 1010.67 1011.63 1011.66 1012.22 1012.93 1013.35 1013.82 1014.26 1014.83 1015.19 1015.79 1016.62 1017.29 1017.54 1018.15 1018.76 1019.17 1019.30 1019.53 1019.61 1019.65 1019.36 1018.92 1018.80 1018.46 1018.16 1018.09 1017.88 1017.49 1017.02
1010.33 1011.14 1011.15 1011.05 1011.77 1011.96 1012.02 1011.61 1011.05 1011.46 1010.75 1010.01 1010.92 1011.24 1009.71 1010.92 1011.97 1012.08 1012.52 1013.16 1013.67 1014.09 1014.61 1015.24 1016.58 1017.17 1017.27 1017.74 1018.15 1018.54 1018.96 1019.18 1019.45 1019.60 1019.61 1019.57 1019.42 1019.15 1018.70 1018.35 1018.13 1017.35 1016.89 1016.75
1010.58 1010.83 1011.41 1011.85 1011.50 1011.80 1011.62 1011.41 1010.30 1010.08 1009.83 1009.97 1011.37 1011.20 1010.70 1011.77 1012.33 1012.63 1012.76 1013.11 1013.56 1014.08 1014.62 1015.94 1016.48 1016.70 1017.35 1017.73 1018.20 1018.50 1018.68 1019.10 1019.31 1019.45 1019.42 1019.41 1019.32 1019.19 1018.76 1018.16 1017.67 1017.34 1016.89 1016.42
1010.12 1010.49 1011.29 1012.04 1011.93 1012.05 1012.26 1012.52 1011.81 1011.43 1010.75 1010.55 1011.21 1010.65 1011.10 1012.17 1012.80 1013.18 1013.32 1013.35 1013.57 1014.76 1015.37 1016.08 1016.62 1017.14 1017.34 1017.92 1018.37 1018.63 1018.82 1019.04 1019.19 1019.21 1019.23 1019.22 1019.05 1018.71 1018.43 1017.83 1017.77 1017.35 1016.85 1016.44
1010.80 1010.84 1011.97 1012.45 1012.58 1012.95 1012.43 1012.53 1013.60 1013.02 1012.49 1011.69 1010.61 1011.14 1011.50 1012.30 1012.70 1013.21 1013.58 1014.14 1014.70 1015.38 1015.97 1016.34 1016.77 1017.40 1017.79 1018.15 1018.46 1018.75 1018.90 1018.90 1018.86 1018.95 1018.87 1018.74 1018.62 1018.45 1018.20 1017.85 1017.49 1017.00 1016.64 1016.26
1011.69 1011.70 1012.17 1012.93 1013.03 1013.41 1013.33 1013.82 1013.55 1013.07 1012.59 1011.68 1010.57 1011.00 1010.72 1011.81 1012.27 1012.95 1013.74 1014.37 1014.98 1015.67 1016.07 1016.43 1016.99 1017.46 1018.03 1018.12 1018.32 1018.35 1018.45 1018.47 1018.54 1018.52 1018.36 1018.36 1018.50 1018.26 1017.82 1017.47 1017.06 1016.76 1016.79 1016.58
1012.58 1012.70 1012.41 1012.99 1012.78 1012.90 1013.11 1013.08 1013.89 1014.11 1013.63 1012.67 1011.64 1010.72 1011.85 1012.39 1012.91 1013.23 1013.43 1014.12 1015.02 1015.61 1015.86 1016.22 1016.75 1017.33 1017.85 1018.00 1018.08 1018.27 1018.38 1018.37 1018.28 1018.20 1018.29 1018.36 1018.22 1018.12 1017.62 1017.21 1016.85 1016.71 1016.47 1016.27
1013.63 1013.26 1012.57 1012.67 1013.55 1013.95 1013.84 1013.68 1013.99 1013.88 1013.64 1013.38 1013.49 1012.53 1012.68 1013.16 1013.58 1014.04 1014.00 1014.54 1015.18 1015.74 1015.99 1016.40 1016.72 1017.21 1017.50 1017.83 1018.15 1018.30 1018.47 1018.40 1018.18 1018.17 1018.01 1017.93 1017.92 1017.79 1017.37 1016.82 1016.43 1016.24 1016.01 1015.96
1014.15 1013.90 1013.20 1012.81 1013.75 1014.01 1013.77 1014.07 1014.39 1014.68 1014.78 1013.95 1013.30 1012.41 1012.88 1013.32 1013.75 1014.29 1014.49 1014.84 1015.37 1015.86 1016.11 1016.33 1016.65 1017.06 1017.36 1017.77 1018.16 1018.35 1018.42 1018.28 1018.26 1018.23 1017.85 1017.47 1017.50 1017.44 1017.13 1016.78 1016.24 1015.88 1015.67 1015.49
1014.84 1014.29 1013.83 1013.39 1013.36 1013.91 1013.78 1013.91 1014.35 1014.53 1014.42 1013.67 1012.94 1012.43 1012.37 1012.67 1013.06 1013.83 1014.63 1014.97 1015.26 1015.61 1015.95 1016.35 1016.84 1017.12 1017.44 1017.89 1018.16 1018.38 1018.37 1018.34 1018.19 1018.14 1017.75 1017.66 1017.59 1017.12 1016.70 1016.33 1015.84 1015.58 1015.25 1014.77
1014.78 1014.25 1014.19 1013.93 1014.20 1014.32 1014.07 1013.89 1013.88 1014.14 1014.08 1013.83 1013.29 1013.00 1012.84 1013.13 1013.45 1013.90 1014.49 1015.08 1015.40 1015.57 1016.02 1016.49 1016.94 1017.34 1017.67 1017.91 1018.27 1018.39 1018.35 1018.24 1018.16 1018.09 1018.00 1017.72 1017.29 1016.79 1016.13 1015.69 1015.35 1015.04 1014.60 1014.04
1015.11 1014.44 1014.55 1014.13 1014.14 1014.42 1013.92 1013.57 1013.63 1013.81 1013.79 1013.77 1013.63 1013.14 1013.38 1013.78 1013.98 1014.32 1014.72 1015.11 1015.34 1015.59 1016.11 1016.69 1017.10 1017.53 1017.89 1018.15 1018.36 1018.42 1018.22 1018.17 1018.26 1018.09 1017.76 1017.45 1016.87 1016.26 1015.63 1015.22 1014.94 1014.50 1013.82 1013.22
1014.69 1014.36 1014.58 1013.88 1014.33 1014.12 1013.24 1012.40 1012.94 1013.30 1013.55 1013.69 1013.27 1013.03 1013.51 1013.63 1013.94 1014.27 1014.62 1015.02 1015.32 1015.83 1016.45 1016.91 1017.33 1017.71 1018.11 1018.31 1018.46 1018.21 1018.15 1017.94 1017.67 1017.68 1017.40 1016.92 1016.34 1015.70 1015.28 1014.95 1014.41 1013.75 1013.11 1012.53
1014.46 1014.70 1014.64 1014.04 1014.17 1013.36 1012.99 1013.19 1013.45 1013.50 1013.35 1013.35 1013.37 1013.25 1013.41 1013.74 1014.09 1014.47 1014.68 1015.07 1015.58 1016.16 1016.70 1017.08 1017.54 1017.94 1018.25 1018.41 1018.32 1018.22 1017.99 1017.66 1017.63 1017.61 1017.19 1016.51 1015.88 1015.35 1014.97 1014.47 1013.84 1013.11 1012.45 1011.79
1014.75 1014.62 1014.29 1014.32 1013.49 1013.01 1012.69 1012.84 1013.33 1013.18 1013.10 1012.83 1012.99 1013.09 1013.36 1013.85 1014.55 1013.89 1014.89 1015.56 1016.04 1016.58 1017.16 1017.49 1017.87 1018.11 1018.32 1018.37 1018.34 1018.24 1017.93 1017.82 1017.81 1017.40 1016.94 1016.30 1015.65 1015.11 1014.60 1014.02 1013.34 1012.57 1011.83 1011.19
1015.12 1015.07 1014.51 1013.94 1013.77 1012.84 1012.42 1013.11 1013.56 1013.72 1012.79 1012.59 1012.97 1013.10 1013.34 1014.02 1014.01 1013.64 1015.17 1015.84 1016.39 1017.02 1017.42 1017.72 1018.10 1018.17 1018.19 1018.35 1018.44 1018.27 1018.24 1018.24 1017.53 1017.26 1016.77 1016.19 1015.45 1014.78 1014.21 1013.66 1012.89 1012.13 1011.38 1010.84
1014.37 1014.34 1013.92 1013.34 1013.32 1012.82 1012.67 1013.47 1014.00 1013.37 1013.10 1012.71 1012.94 1013.05 1013.36 1013.76 1013.97 1014.85 1015.46 1016.00 1016.61 1017.07 1017.51 1017.93 1018.06 1018.02 1018.21 1018.44 1018.52 1018.54 1018.51 1018.04 1017.49 1017.11 1016.57 1016.00 1015.24 1014.68 1014.08 1013.34 1012.62 1011.83 1011.10 1010.63
1012.91 1013.12 1013.21 1013.17 1012.80 1012.55 1012.70 1013.72 1013.64 1012.75 1012.91 1012.96 1012.99 1013.05 1013.27 1013.56 1014.06 1014.96 1015.36 1015.89 1016.48 1016.98 1017.33 1017.73 1017.89 1017.98 1018.29 1018.43 1018.67 1018.76 1018.66 1018.14 1017.61 1016.92 1016.26 1015.69 1015.03 1014.51 1013.87 1013.18 1012.40 1011.67 1011.14 1010.69
1012.50 1012.23 1012.52 1012.87 1012.37 1012.46 1012.96 1012.60 1012.87 1013.16 1013.02 1012.81 1013.03 1012.99 1013.28 1013.39 1013.80 1014.48 1015.14 1015.78 1016.37 1016.91 1017.34 1017.69 1017.85 1017.97 1018.21 1018.39 1018.93 1019.03 1018.78 1018.20 1017.48 1016.62 1016.09 1015.54 1014.91 1014.33 1013.81 1013.03 1012.29 1011.62 1011.33 1011.00
1011.75 1012.68 1012.57 1012.59 1012.39 1012.02 1012.52 1012.60 1012.75 1012.97 1012.95 1012.96 1012.94 1013.08 1013.19 1013.29 1013.64 1014.24 1015.01 1015.65 1016.33 1016.78 1017.30 1017.69 1017.87 1017.94 1018.23 1018.56 1019.26 1019.32 1018.80 1018.09 1017.34 1016.49 1016.06 1015.48 1014.90 1014.36 1013.65 1012.95 1012.33 1011.82 1011.73 1011.30
1011.95 1012.45 1012.34 1012.07 1012.04 1011.79 1012.10 1012.00 1012.16 1012.42 1012.71 1012.88 1012.77 1012.85 1012.95 1013.24 1013.47 1014.04 1014.79 1015.61 1016.25 1016.83 1017.30 1017.80 1017.94 1018.15 1018.42 1019.12 1019.21 1019.14 1018.59 1018.10 1017.13 1016.53 1016.02 1015.50 1015.02 1014.48 1013.83 1013.06 1012.55 1012.55 1012.27 1012.14
1012.43 1012.64 1012.44 1011.88 1012.35 1012.50 1012.10 1012.34 1012.51 1012.80 1012.70 1012.50 1012.32 1012.46 1012.85 1013.30 1013.43 1014.06 1014.69 1015.55 1016.27 1016.76 1017.26 1017.71 1017.96 1018.33 1018.94 1019.21 1019.05 1018.93 1018.46 1017.84 1017.14 1016.55 1015.93 1015.64 1015.21 1014.63 1014.08 1013.39 1012.95 1013.29 1012.94 1012.49
Wind_Speed
5 9 7 10 8 6 2 1 4 0 4 7 6 9 10 7 12 14 14 13 13 13 12 12 7 4 3 5 6 7 8 8 7 8 8 8 9 8 8 7 7 9 8 8
11 10 7 6 4 3 3 5 2 5 3 9 9 11 5 6 11 12 12 13 14 13 13 10 8 6 7 7 7 8 9 9 8 8 7 7 8 9 10 9 7 8 8 10
3 13 4 1 1 7 2 8 6 10 11 14 9 16 8 4 7 7 9 10 13 13 13 11 9 8 8 8 9 9 10 10 9 9 9 9 9 11 10 9 10 9 12 12
7 8 2 2 3 8 6 6 8 11 12 11 6 6 6 3 6 10 12 13 13 12 10 10 8 8 8 9 9 8 9 9 8 8 8 9 9 10 9 10 9 10 13 14
7 7 3 3 7 4 7 7 9 10 12 7 6 9 10 1 3 7 11 14 13 12 12 11 9 8 9 7 6 5 6 5 6 6 7 8 10 10 10 10 14 14 15 15
7 2 2 5 3 2 5 9 10 6 5 8 6 6 7 6 7 5 1 9 11 12 11 5 4 4 3 4 6 5 6 6 6 8 10 11 12 13 12 14 14 13 12 12
5 6 4 2 7 7 8 10 5 4 3 4 2 9 8 6 3 4 1 5 9 10 7 4 7 6 4 5 6 7 7 9 9 11 12 13 14 15 17 15 13 13 12 12
3 9 6 2 4 7 5 7 6 6 6 10 6 3 7 3 1 2 4 4 5 2 6 5 3 5 7 7 9 10 10 11 12 14 15 14 15 12 12 12 12 12 11 11
3 1 6 4 1 5 4 4 5 8 6 8 3 4 9 5 5 4 2 3 5 5 5 3 3 6 8 9 10 10 11 14 15 16 15 15 14 15 14 15 13 11 12 11
1 7 1 5 3 5 5 3 5 5 6 9 4 4 3 1 3 5 6 7 5 4 4 4 6 7 8 9 9 11 13 16 17 18 15 14 15 16 15 14 14 13 13 13
3 4 7 5 3 7 4 6 2 5 6 6 8 5 7 5 6 9 8 4 5 5 6 6 7 7 8 10 12 13 15 17 17 15 14 13 13 13 15 13 13 13 14 13
3 3 6 6 2 4 6 7 6 5 3 4 8 9 5 5 7 6 4 3 3 5 6 8 8 8 10 12 13 14 15 16 16 15 14 15 14 12 13 14 15 13 11 9
5 2 5 5 8 5 5 2 3 4 5 10 8 5 3 2 4 3 3 4 6 4 7 8 8 10 11 12 13 14 15 15 15 15 16 15 14 12 12 13 13 13 10 12
1 2 7 9 9 6 7 6 8 7 6 10 11 15 13 11 9 3 6 5 6 6 8 8 9 11 12 12 13 14 14 14 14 14 14 15 14 14 14 15 14 10 12 13
4 6 5 7 6 8 12 12 10 12 12 10 12 14 12 10 7 2 3 4 7 9 9 8 10 11 13 13 13 13 13 13 13 15 14 14 14 15 15 13 11 12 13 12
4 4 5 10 6 9 12 11 10 10 10 10 10 13 5 4 3 3 4 6 9 9 9 10 11 12 13 14 13 13 13 12 12 13 15 13 15 15 15 11 13 13 13 12
6 4 6 8 1 9 13 12 8 4 6 6 8 9 7 7 5 5 6 8 9 9 9 10 11 12 12 13 13 14 13 13 13 14 15 15 15 15 12 13 13 13 12 12
6 7 3 6 6 9 6 4 1 5 6 7 9 8 6 7 6 6 7 8 9 7 8 9 10 12 12 13 13 13 13 13 13 14 15 16 16 14 13 14 14 13 11 12
4 6 3 6 7 11 13 11 7 3 8 5 6 6 5 3 6 13 2 3 6 6 7 8 9 11 12 13 13 13 13 13 14 13 15 16 16 13 14 14 14 13 11 10
5 6 8 4 9 9 5 6 3 2 10 8 3 5 5 3 8 6 2 1 3 4 6 8 10 11 12 12 13 13 13 13 14 14 16 17 16 14 13 13 14 11 11 7
6 7 11 9 9 8 6 5 5 8 5 1 3 5 5 7 7 2 1 2 3 4 6 7 9 11 12 12 12 13 12 12 13 15 16 16 15 14 13 13 11 11 9 7
11 7 7 8 9 13 6 8 7 7 1 2 4 6 8 9 6 6 4 4 4 5 6 7 9 10 11 11 11 12 12 13 14 15 15 15 14 11 10 13 10 10 8 7
11 11 9 7 7 4 11 9 7 5 7 5 6 7 8 9 8 8 6 4 4 4 6 7 8 10 10 10 10 12 12 13 14 14 15 15 14 12 12 11 10 7 5 5
8 3 7 6 12 13 11 13 13 10 10 9 9 10 9 11 7 7 6 5 4 3 6 7 8 10 11 11 10 10 11 12 14 14 14 13 12 13 12 9 7 6 5 5
6 6 9 11 13 12 11 12 11 9 7 10 10 11 11 10 9 8 6 5 4 3 5 6 7 9 10 11 10 9 11 11 13 13 12 12 10 11 10 9 7 6 6 3
7 11 9 11 9 10 10 11 6 8 12 14 12 11 9 11 10 8 6 5 4 3 4 6 7 8 9 9 9 9 10 11 12 12 10 9 9 9 8 8 5 10 13 12
Wind_Direction
165 235 68 54 44 49 44 292 294 90 125 291 265 293 287 200 224 210 201 196 193 190 172 172 198 215 261 283 297 306 312 312 318 305 315 297 295 312 289 297 307 310 330 329
197 92 95 87 67 23 323 298 50 186 179 293 301 287 301 238 224 224 207 199 198 191 179 191 216 233 259 278 289 292 298 302 307 302 316 297 301 293 301 295 278 285 329 323
7 114 121 244 152 312 63 333 339 322 321 271 288 270 194 187 234 222 231 221 213 200 202 210 229 252 273 284 283 285 299 304 303 308 290 279 278 266 267 302 325 333 321 317
101 136 195 234 74 333 304 4 302 298 302 307 1 308 137 123 215 216 220 221 221 212 223 239 255 263 271 281 295 311 315 319 314 339 322 341 303 310 337 289 309 316 305 311
98 172 194 269 40 335 16 317 313 302 282 302 150 270 105 56 255 231 225 225 225 226 224 235 259 330 300 326 309 310 326 344 358 349 344 324 321 319 316 312 309 306 287 291
94 81 289 27 122 346 318 277 249 269 258 230 78 329 102 29 2 354 273 222 227 224 227 248 297 260 286 315 316 320 328 332 340 333 326 322 318 316 313 310 302 298 307 305
172 160 129 249 265 183 312 334 306 239 243 340 78 288 36 37 16 343 28 204 211 217 237 240 247 290 342 326 330 316 316 311 315 318 318 318 312 311 300 307 303 309 298 300
271 166 184 123 316 333 351 328 333 314 329 332 128 245 73 46 54 316 282 261 204 182 224 240 288 321 321 324 310 312 308 306 316 314 316 310 307 305 304 302 310 297 300 295
254 182 120 52 318 306 48 295 13 286 236 259 67 173 192 196 216 234 228 222 204 210 218 246 291 300 315 311 310 311 311 305 313 312 309 306 308 305 301 298 295 288 297 294
142 271 136 111 218 107 299 80 235 183 294 313 336 267 6 352 263 218 238 234 210 214 230 270 304 310 309 308 305 300 311 315 315 314 311 317 316 306 302 299 292 299 297 292
192 255 134 204 180 338 193 208 210 300 296 300 304 27 48 10 2 327 302 228 232 243 266 282 314 312 306 308 317 322 321 318 316 315 317 313 312 310 303 298 296 294 289 292
67 290 274 0 80 297 284 305 291 285 217 247 290 293 75 31 354 330 311 194 227 278 311 310 309 314 307 322 324 325 323 317 318 317 315 312 312 306 300 296 299 294 287 295
165 186 285 233 174 157 249 189 268 266 270 270 284 283 157 250 310 300 255 208 236 273 290 311 310 319 320 328 326 325 323 321 322 320 312 314 315 305 304 305 301 301 302 284
209 196 278 286 342 326 281 250 241 256 279 280 279 311 328 327 330 224 233 252 277 302 318 316 313 320 328 328 327 323 320 323 325 321 317 320 310 307 305 303 294 301 293 284
238 257 240 275 282 279 283 279 263 240 262 272 295 313 325 349 347 289 264 283 288 307 312 318 320 324 323 328 326 318 322 324 328 330 319 317 315 307 306 303 308 298 291 285
191 243 246 269 245 271 272 259 258 255 264 270 279 289 43 340 296 252 262 290 300 308 317 321 322 326 326 327 323 322 319 324 332 320 321 319 312 311 308 306 303 296 292 289
190 185 237 289 319 289 269 247 207 232 247 274 279 350 333 303 285 291 294 299 308 315 319 320 324 326 329 325 321 321 323 318 325 326 324 320 316 309 312 307 299 293 292 290
188 208 258 290 287 261 67 88 356 275 279 250 260 288 309 299 311 292 300 312 310 313 314 320 327 329 327 325 320 325 320 322 337 328 323 322 318 317 310 306 301 295 292 288
237 216 223 271 284 295 266 205 223 236 285 234 261 297 290 294 296 257 178 306 312 319 315 318 327 328 326 323 329 324 325 340 331 331 327 322 320 314 310 308 304 300 298 297
195 247 249 228 276 280 357 145 160 198 279 165 236 275 284 230 286 47 97 307 289 301 307 325 326 323 328 333 328 327 337 330 330 336 326 321 319 315 314 308 306 305 300 304
186 214 235 251 251 272 281 166 170 247 259 128 255 266 246 239 298 69 141 249 294 309 314 329 317 324 336 330 333 328 333 322 339 328 326 323 320 320 316 311 311 311 315 308
221 217 226 252 266 260 127 145 227 281 192 286 252 255 248 254 242 238 241 258 261 279 310 319 322 330 335 332 337 332 332 331 330 329 326 328 321 323 317 317 315 318 324 331
247 251 272 215 253 81 183 239 231 238 288 294 282 279 264 263 247 235 234 238 255 287 318 318 328 325 340 342 350 335 331 328 327 329 332 329 324 325 322 320 320 324 342 337
228 211 240 228 240 251 243 250 253 238 263 283 270 268 272 264 249 226 220 227 242 284 309 327 321 333 336 357 352 336 325 335 324 334 334 331 332 327 327 327 327 339 351 334
304 162 241 242 262 271 249 253 259 241 253 271 269 260 266 257 236 220 207 211 232 285 314 326 326 334 340 351 337 342 332 335 332 333 334 338 334 328 328 332 346 12 11 352
221 263 236 260 359 335 308 25 3 305 300 301 291 279 252 253 232 203 193 181 202 259 317 317 330 339 352 333 338 340 337 333 338 333 337 340 331 329 330 333 5 55 46 44